Location: STAR School
(35.3054°N, 111.2976°W)
Time: 22:11:39
(UTC-07:00)

Vanguard 1 - Pass Details

Date: 30 October 2019
Orbit: 652 x 3831 km, 34.2° (Epoch: 20 November)

Event Time Altitude Azimuth Distance (km) Brightness Sun altitude
Rises 21:21:12 0° 280° (W) 4,116 14.0 -46.8°
Reaches altitude 10° 21:23:34 10° 275° (W) 3,427 13.3 -47.3°
Enters shadow 21:28:52 41° 247° (WSW) 2,383 12.0 -48.3°
